Leadville, CO

1:34 AM MST on December 11, 2019 (GMT -0700)
Lake County

Weather History for KLXV - November, 2019

Change the Weather History Date:

Sunday, November 17, 2019

  Actual Average Record
Temperature  
Mean Temperature 30 °F -  
Max Temperature 43 °F 36 °F 52 °F (1979)
Min Temperature 17 °F 12 °F -10 °F (1980)
Degree Days  
Heating Degree Days 35 41  
Month to date heating degree days 587 643  
Since 1 July heating degree days 2655 2832  
Cooling Degree Days 0 0  
Month to date cooling degree days 0 0  
Year to date cooling degree days 0 0  
Moisture  
Dew Point 16 °F    
Average Humidity 58    
Maximum Humidity 81    
Minimum Humidity 34    
Precipitation  
Precipitation 0.00 in 0.02 in 0.65 in (2017)
Month to date precipitation 0.02 0.46  
Year to date precipitation 14.08 11.40  
Sea Level Pressure  
Sea Level Pressure 30.12 in    
Wind  
Wind Speed 9 mph (North)    
Max Wind Speed 18 mph    
Max Gust Speed 30 mph    
Visibility 10 miles    
Events      
T = Trace of Precipitation, MM = Missing Value Source: NWS Daily Summary

Daily Weather History Graph

Daily Weather History Graph

Search for Another Location

Airport or City:

Astronomy

Nov. 17, 2019 Rise Set
Actual Time 6:50 AM MST 4:49 PM MST
Civil Twilight 6:21 AM MST 5:18 PM MST
Nautical Twilight 5:49 AM MST 5:50 PM MST
Astronomical Twilight 5:17 AM MST 6:22 PM MST
Moon 9:29 PM MST (11/17) 11:38 AM MST (11/17)
Length of Visible Light 10h 56m
Length of Day
9h 58m
Waning Gibbous, 73% of the Moon is Illuminated
Nov 17
Waning Gibbous
Nov 19
Last Quarter
Nov 26
New
Dec 3
First Quarter
Dec 11
Full

Hourly Weather History & Observations

Time (MST) Temp. Windchill Dew Point Humidity Pressure Visibility Wind Dir Wind Speed Gust Speed Precip Events Conditions
12:53 AM 27.0 °F 20.5 °F 17.1 °F 66% 30.04 in 10.0 mi Variable 5.8 mph - N/A   Overcast
1:53 AM 24.1 °F 15.2 °F 16.0 °F 71% 30.08 in 10.0 mi NE 8.1 mph - N/A   Mostly Cloudy
2:31 AM 23.0 °F 18.4 °F 16.0 °F 74% 30.27 in 10.0 mi Variable 3.5 mph - N/A   Mostly Cloudy
2:45 AM 21.9 °F 15.7 °F 15.1 °F 75% 30.27 in 10.0 mi NNE 4.6 mph - N/A   Scattered Clouds
2:53 AM 21.9 °F 15.7 °F 16.0 °F 78% 30.11 in 10.0 mi West 4.6 mph - N/A   Scattered Clouds
3:53 AM 21.0 °F 14.6 °F 16.0 °F 81% 30.12 in 10.0 mi North 4.6 mph - N/A   Partly Cloudy
4:53 AM 21.0 °F 13.4 °F 16.0 °F 81% 30.14 in 10.0 mi NNW 5.8 mph - N/A   Clear
5:53 AM 19.0 °F 10.0 °F 14.0 °F 81% 30.17 in 10.0 mi ENE 6.9 mph - N/A   Clear
6:53 AM 18.0 °F 12.7 °F 12.9 °F 81% 30.21 in 10.0 mi NNE 3.5 mph - N/A   Clear
8:53 AM 28.9 °F 19.2 °F 9.0 °F 43% 30.16 in 10.0 mi North 11.5 mph - N/A   Clear
10:53 AM 36.0 °F 28.0 °F 12.9 °F 39% 30.13 in 10.0 mi North 11.5 mph 21.9 mph N/A   Clear
11:53 AM 37.9 °F 29.6 °F 15.1 °F 39% 30.09 in 10.0 mi NNW 13.8 mph 21.9 mph N/A   Clear
12:53 PM 39.0 °F 31.4 °F 15.1 °F 38% 30.06 in 10.0 mi NNW 12.7 mph 28.8 mph N/A   Clear
1:53 PM 41.0 °F 34.7 °F 16.0 °F 36% 30.03 in 10.0 mi NNW 10.4 mph 20.7 mph N/A   Clear
2:53 PM 42.1 °F 35.7 °F 16.0 °F 35% 30.05 in 10.0 mi NNW 11.5 mph 21.9 mph N/A   Clear
4:53 PM 35.1 °F 29.3 °F 16.0 °F 46% 30.12 in 10.0 mi NW 6.9 mph 17.3 mph N/A   Clear
5:53 PM 30.9 °F - 16.0 °F 54% 30.18 in 10.0 mi North - - N/A   Clear
6:53 PM 32.0 °F 22.1 °F 18.0 °F 56% 30.18 in 10.0 mi NW 13.8 mph 27.6 mph N/A   Clear
7:53 PM 27.0 °F 20.5 °F 16.0 °F 63% 30.18 in 10.0 mi North 5.8 mph - N/A   Clear
8:53 PM 27.0 °F - 16.0 °F 63% 30.14 in 10.0 mi North - - N/A   Clear
9:53 PM 30.9 °F 22.8 °F 19.0 °F 61% 30.08 in 10.0 mi NNE 9.2 mph - N/A   Overcast
10:53 PM 32.0 °F 25.6 °F 21.0 °F 64% 30.04 in 10.0 mi North 6.9 mph - N/A   Overcast
11:53 PM 34.0 °F 25.5 °F 23.0 °F 64% 30.01 in 10.0 mi NW 11.5 mph 21.9 mph N/A   Mostly Cloudy